Location: *
(33.8649°S, 62.1526°E)
Time: 04:29:42
(UTC+00:00)

Yuri Rocket - Pass Details

Date: 17 January 2021
Orbit: 568 x 1914 km, 28.2° (Epoch: 27 February)

Event Time Altitude Azimuth Distance (km) Brightness Sun altitude
Rises 16:21:15 0° 290° (WNW) 2,770 6.9 -14.4°
Reaches altitude 10° 16:23:28 10° 298° (WNW) 1,913 5.9 -14.8°
Maximum altitude 16:27:32 41° 8° (N) 951 3.7 -15.4°
Enters shadow 16:29:41 26° 59° (ENE) 1,357 4.2 -15.8°
